Tracking 17154 objects as of 1-August-2015
HD Live streaming from Space Station

SL-16 DEB

Track SL-16 DEB now!
10-day predictions
SL-16 DEB is classified as:


NORAD ID: 24300
Int'l Code: 1996-051D
Perigee: 847.6 km
Apogee: 1,137.9 km
Inclination: 71.0 °
Period: 104.8 minutes
Semi major axis: 7363 km
RCS: 0.0855 m2 (small)
Launch date: September 4, 1996
Source: Commonwealth of Independent States (former USSR) (CIS)

Note: This is SATELLITE DEBRIS
Your satellite tracking list
Your tracking list is empty





NASA's NSSDC Master Catalog

Two Line Element Set (TLE):
1 24300U 96051D   15212.12543091 -.00000036  00000-0  65922-5 0  9995
2 24300 071.0325 341.1090 0197072 350.3004 061.7347 13.73901287947681

Source of the keplerian elements: AFSPC

N2YO: 257